Flag for Germany Weather past 2 weeks in Herzogenrath, North Rhine-Westphalia, Germany

Now
91 °F

Sunny.


Feels Like: 94 °F
Forecast: 72 / 94 °F
Wind: 7 mph from Northeast

Location: Geilenkirchen Airport

Current Time: Jul 3, 2015 at 7:26:03 PM

Latest Report: Jul 3, 2015 at 5:50 PM


Visibility: 10 mi

Pressure: 30.18 "Hg

Humidity: 44%

Dew point: 66 °F

Location of HerzogenrathLocation

Historic Weather in Herzogenrath — Graph

°F

Herzogenrath temperature yesterday

Maximum temperature yesterday: 102 °F (at 4:50 PM)
Minimum temperature yesterday: 73 °F (at 4:50 AM)
Average temperature yesterday: 85 °F

Past Weeks' High & Low Weather Summary

 TemperatureHumidityPressure
High102 °F (Jul 2, 4:50 PM)94% (Jun 22, 8:50 PM)30.27 "Hg (Jun 22, 8:50 PM)
Low50 °F (Jun 22, 8:50 PM)26% (Jul 2, 4:50 PM)29.71 "Hg (Jun 22, 7:50 PM)
Average67 °F64%30.08 "Hg
* Reported Jun 18 5:50 PM — Jul 3 5:50 PM, Herzogenrath, Weather by CustomWeather, © 2015

Note: Actual official high and low records may vary slightly from our data, if they occured in-between our weather recording intervals... More about our weather records

Advertising

Herzogenrath weather history for previous 24 hours

 ConditionsComfort  
Time TempWeatherWind HumidityBarometerVisibility
5:50 PM
Fri, Jul 3
91 °FSunny.7 mph44%30.18 "Hg10 mi
4:50 PM91 °FSunny.9 mph44%30.18 "Hg10 mi
3:50 PM91 °FSunny.8 mph44%30.21 "Hg10 mi
2:50 PM90 °FSunny.5 mph46%30.21 "Hg10 mi
1:50 PM88 °FSunny.6 mph49%30.24 "Hg10 mi
12:50 PM84 °FSunny.7 mph55%30.24 "Hg10 mi
11:50 AM82 °FSunny.3 mph55%30.24 "Hg10 mi
10:50 AM79 °FSunny.3 mph61%30.27 "Hg10 mi
9:50 AM77 °FSunny.5 mph65%30.27 "Hg10 mi
8:50 AM73 °FSunny.3 mph74%30.27 "Hg10 mi
7:50 AM70 °FSunny.3 mph78%30.27 "Hg10 mi
6:50 AM66 °FSunny.5 mph88%30.27 "Hg10 mi
5:50 AM68 °FClear.7 mph83%30.24 "Hg10 mi
4:50 AM66 °FClear.7 mph88%30.24 "Hg10 mi
3:50 AM68 °FPassing clouds.6 mph83%30.24 "HgN/A
2:50 AM70 °FClear.3 mph78%30.21 "Hg10 mi
1:50 AM70 °FClear.9 mph78%30.21 "Hg10 mi
12:50 AM72 °FClear.8 mph73%30.18 "Hg10 mi
11:50 PM
Thu, Jul 2
75 °FClear.7 mph65%30.15 "Hg10 mi
10:50 PM77 °FSunny.12 mph65%30.15 "Hg10 mi
9:50 PM79 °FSunny.7 mph61%30.12 "Hg10 mi
8:50 PM82 °FSunny.13 mph58%30.09 "Hg10 mi
7:50 PM84 °FSunny.12 mph55%30.07 "Hg10 mi
Weather by CustomWeather, © 2015

See weather overviewHow to use our weather pages